Starlink 36060

operational
NORAD ID: 67090 Int'l Des: 2025-298 Owner: SPXS Country: US Constellation: starlink
LEOCIRCULAR

About Starlink 36060

Description loading...

Live Position

Loading 3D Globe...

Upcoming Passes

Altitude History

Altitude vs Time

uPlot chart will show altitude changes over time

Two-Line Element Set

1 67090C 25298R 25349.42201389 -.00571330 00000+0 -85052-3 0 3492
2 67090 70.0017 243.0139 0006207 272.1096 184.5965 16.05142831 13
Epoch: Dec 15, 2025 • Age: 44 hours

Current Status

Altitude 267.1 km
Velocity 7.75 km/s
Sub-Earth Point 4.03°N, 147.86°W
Launch Date Dec 14, 2025
Age 2 days
Type internet

Technical Details

Classification Payload
Mass 575.00 kg
Dry Mass 530.00 kg
Total Mass 575.00 kg
Length 0.30 m
Diameter 4.10 m
Span 29.00 m
Shape Box + pan
Manufacturer SPXS
Bus Type Starlink V2MO
Phase Status In Orbit
Owner/State SPXS/US

Large Constellations

Loading constellations...